GW1347 Weather Reports


Display with metric or nautical units.
time (UTC)temp
F
wind
direction
speed
MPH
gust
MPH
rain 1hr
in
rain 24hr
in
rain mn
in
humidity
%
barometer
mb
20260906180722 83 347 5.0 16.0 0.00 0.00 0.00 49 1016.3
20260906173418 82 354 6.0 17.0 0.00 0.00 0.00 52 1016.4
20260906172442 81 34 8.0 17.0 0.00 0.00 0.00 52 1016.4
20260906171505 81 234 6.0 17.0 0.00 0.00 0.00 54 1016.7
20260906170450 81 51 6.0 14.0 0.00 0.00 0.00 53 1016.6
20260906165452 81 13 5.0 11.0 0.00 0.00 0.00 55 1016.8
20260906163325 80 265 6.0 16.0 0.00 0.00 0.00 56 1017.1
20260906162348 80 35 6.0 16.0 0.00 0.00 0.00 56 1017.3
20260906161344 80 353 6.0 14.0 0.00 0.00 0.00 57 1017.4
20260906160311 79 30 6.0 15.0 0.00 0.00 0.00 56 1017.3
20260906155320 79 43 5.0 15.0 0.00 0.00 0.00 58 1017.3
20260906154318 78 56 6.0 14.0 0.00 0.00 0.00 58 1017.2
20260906153328 78 9 5.0 12.0 0.00 0.00 0.00 58 1017.7
20260906152346 78 342 5.0 12.0 0.00 0.00 0.00 58 1017.6
20260906150252 77 110 4.0 11.0 0.00 0.00 0.00 61 1017.5
20260906142950 75 91 4.0 8.0 0.00 0.00 0.00 64 1017.3
20260906142009 75 8 4.0 12.0 0.00 0.00 0.00 65 1017.3
20260906135817 74 68 4.0 12.0 0.00 0.00 0.00 67 1017.0
20260906134825 73 8 5.0 12.0 0.00 0.00 0.00 69 1017.0
20260906133818 73 35 4.0 11.0 0.00 0.00 0.00 69 1017.0
20260906132805 73 12 4.0 11.0 0.00 0.00 0.00 72 1016.9
20260906131823 72 357 4.0 9.0 0.00 0.00 0.00 72 1016.8
20260906130818 72 48 3.0 11.0 0.00 0.00 0.00 73 1016.8
20260906125748 72 4 3.0 11.0 0.00 0.00 0.00 73 1016.7
20260906124755 71 205 3.0 8.0 0.00 0.00 0.00 74 1016.7
20260906123758 71 85 3.0 9.0 0.00 0.00 0.00 75 1016.6
20260906122802 71 109 3.0 9.0 0.00 0.00 0.00 77 1016.3
20260906120655 70 21 3.0 6.0 0.00 0.00 0.00 79 1016.2
20260906115717 70 16 3.0 9.0 0.00 0.00 0.00 80 1016.2
20260906114657 70 24 3.0 9.0 0.00 0.00 0.00 81 1016.1
20260906113640 70 9 4.0 7.0 0.00 0.00 0.00 82 1016.0
20260906112612 70 45 2.0 9.0 0.00 0.00 0.00 83 1015.8
20260906111612 70 6 4.0 9.0 0.00 0.00 0.00 83 1015.6
20260906105433 71 8 4.0 7.0 0.00 0.00 0.00 84 1015.4
20260906104401 71 335 4.0 10.0 0.00 0.00 0.00 85 1015.4
20260906103421 71 47 4.0 10.0 0.00 0.00 0.00 86 1015.2
20260906102433 71 345 4.0 13.0 0.00 0.00 0.00 87 1015.0
20260906095225 72 14 3.0 8.0 0.00 0.00 0.00 85 1014.6
20260906094229 73 312 4.0 8.0 0.00 0.00 0.00 85 1014.4
20260906093207 73 16 4.0 8.0 0.00 0.00 0.00 86 1014.5
20260906092138 73 13 5.0 11.0 0.00 0.00 0.00 86 1014.3
20260906091107 73 58 6.0 11.0 0.00 0.00 0.00 86 1014.3
20260906083715 74 11 6.0 13.0 0.00 0.00 0.00 87 1014.1
20260906081612 74 3 4.0 11.0 0.00 0.00 0.00 88 1014.0
20260906080548 74 6 4.0 9.0 0.00 0.00 0.00 89 1014.1
20260906075529 75 13 3.0 8.0 0.00 0.00 0.00 89 1014.1
20260906074546 74 341 3.0 8.0 0.00 0.00 0.00 89 1014.1
20260906073557 75 9 3.0 8.0 0.00 0.00 0.00 89 1014.1
20260906072559 74 356 3.0 8.0 0.00 0.00 0.00 89 1014.1
20260906071609 74 1 2.0 5.0 0.00 0.00 0.00 90 1014.1
20260906070621 74 27 2.0 6.0 0.00 0.00 0.00 89 1014.1
20260906065635 75 16 3.0 6.0 0.00 0.00 0.00 89 1014.0
20260906064648 74 346 2.0 6.0 0.00 0.00 0.00 89 1014.1
20260906063659 75 339 2.0 6.0 0.00 0.00 0.00 88 1014.0
20260906062649 74 7 1.0 4.0 0.00 0.00 0.00 90 1014.2
20260906061702 74 335 0.0 5.0 0.00 0.00 0.00 89 1014.2
20260906060640 75 359 1.0 5.0 0.00 0.00 0.00 87 1014.3
20260906055634 75 351 1.0 6.0 0.00 0.00 0.00 88 1014.3
20260906054611 76 357 2.0 6.0 0.00 0.00 0.00 86 1014.2
20260906053547 75 17 2.0 8.0 0.00 0.00 0.00 87 1014.1
20260906052612 76 354 3.0 8.0 0.00 0.00 0.00 85 1014.1
20260906050432 76 339 0.0 4.0 0.00 0.00 0.00 84 1014.0
20260906045417 78 5 1.0 5.0 0.00 0.00 0.00 82 1013.9
20260906044402 77 24 2.0 5.0 0.00 0.00 0.00 82 1013.8
20260906043350 78 18 1.0 5.0 0.00 0.00 0.00 80 1013.7
20260906041140 78 18 2.0 6.0 0.00 0.00 0.00 80 1013.4
20260906040151 78 359 3.0 6.0 0.00 0.00 0.00 79 1013.3
20260906035131 78 356 3.0 5.0 0.00 0.00 0.00 78 1013.3
20260906034142 79 30 3.0 6.0 0.00 0.00 0.00 77 1013.3
20260906033131 79 37 4.0 7.0 0.00 0.00 0.00 76 1013.4
20260906032113 80 35 3.0 7.0 0.00 0.00 0.00 75 1013.3
20260906031106 80 26 3.0 8.0 0.00 0.00 0.00 74 1013.4
20260906030051 80 23 3.0 8.0 0.00 0.00 0.00 72 1013.4
20260906025017 80 51 4.0 8.0 0.00 0.00 0.00 72 1013.2
20260906024022 81 16 4.0 8.0 0.00 0.00 0.00 72 1013.2
20260906023007 81 359 4.0 9.0 0.00 0.00 0.00 72 1013.2
20260906021950 82 82 4.0 9.0 0.00 0.00 0.00 72 1013.2
20260906020923 83 147 2.0 10.0 0.00 0.00 0.00 71 1013.1
20260906013616 84 8 4.0 9.0 0.00 0.00 0.00 70 1012.5
20260906012630 85 43 5.0 13.0 0.00 0.00 0.00 71 1012.5
20260906011621 85 8 5.0 13.0 0.00 0.00 0.00 69 1012.3
20260906010606 86 26 1.0 6.0 0.00 0.00 0.00 73 1012.1
20260906005617 86 316 0.0 0.0 0.00 0.00 0.00 73 1011.9
20260906004549 87 316 0.0 0.0 0.00 0.00 0.00 72 1011.6
20260906003534 88 317 0.0 1.0 0.00 0.00 0.00 71 1011.4
20260906002532 89 279 0.0 2.0 0.00 0.00 0.00 69 1011.4
20260906001556 89 13 0.0 2.0 0.00 0.00 0.00 68 1011.5
20260906000607 89 309 0.0 2.0 0.00 0.00 0.00 69 1011.5
20260905235613 90 328 0.0 1.0 0.00 0.00 0.00 68 1011.5
20260905234557 92 318 0.0 1.0 0.00 0.00 0.00 64 1011.6
20260905233553 93 297 0.0 1.0 0.00 0.00 0.00 63 1011.6
20260905232519 94 347 0.0 1.0 0.00 0.00 0.00 62 1011.6
20260905230358 93 359 0.0 1.0 0.00 0.00 0.00 61 1012.0
20260905225351 93 325 0.0 1.0 0.00 0.00 0.00 61 1011.6
20260905224354 93 323 0.0 1.0 0.00 0.00 0.00 58 1011.5
20260905223351 93 1 0.0 1.0 0.00 0.00 0.00 58 1011.3
20260905222337 93 322 0.0 1.0 0.00 0.00 0.00 57 1011.2
20260905221345 93 345 0.0 1.0 0.00 0.00 0.00 57 1011.1
20260905220322 94 305 0.0 2.0 0.00 0.00 0.00 56 1011.4
20260905214151 94 302 0.0 8.0 0.00 0.00 0.00 56 1011.5
20260905213214 95 330 2.0 8.0 0.00 0.00 0.00 54 1011.5
20260905212218 96 302 1.0 4.0 0.00 0.00 0.00 52 1011.5
20260905211147 97 37 1.0 1.0 0.00 0.00 0.00 50 1011.4
20260905210129 97 294 0.0 4.0 0.00 0.00 0.00 50 1011.7
20260905205102 97 326 1.0 4.0 0.00 0.00 0.00 50 1011.8
20260905202936 97 254 1.0 3.0 0.00 0.00 0.00 51 1012.0
20260905201921 97 295 2.0 4.0 0.00 0.00 0.00 50 1012.2
20260905200922 97 290 1.0 9.0 0.00 0.00 0.00 48 1012.3
20260905195927 96 358 3.0 9.0 0.00 0.00 0.00 49 1012.4
20260905194930 98 239 1.0 4.0 0.00 0.00 0.00 47 1012.5
20260905192810 95 271 2.0 6.0 0.00 0.00 0.00 49 1012.6
20260905191833 95 241 1.0 6.0 0.00 0.00 0.00 49 1012.7
20260905190824 95 232 3.0 9.0 0.00 0.00 0.00 48 1012.8
20260905185756 94 272 3.0 9.0 0.00 0.00 0.00 50 1013.0
20260905184818 93 257 4.0 9.0 0.00 0.00 0.00 50 1013.1
20260905183819 93 264 3.0 7.0 0.00 0.00 0.00 50 1013.3
20260905182824 93 283 3.0 7.0 0.00 0.00 0.00 50 1013.4
20260905181827 93 240 3.0 9.0 0.00 0.00 0.00 48 1013.5